Time,TemperatureF,DewpointF,PressureIn,WindDirection,WindDirectionDegrees,WindSpeedMPH,WindSpeedGustMPH,Humidity,HourlyPrecipIn,Conditions,Clouds,dailyrainin,SoftwareType,DateUTC
2013-01-09 00:00:00,28.4,21.2,28.06,WNW,293,10.0,10.0,74,0.00,,,0.06,Wunderground v.1.15,2013-01-09 06:00:00,
2013-01-09 00:06:00,28.1,20.9,28.07,West,270,9.0,12.0,74,0.00,,,0.06,Wunderground v.1.15,2013-01-09 06:06:00,
2013-01-09 00:14:00,27.7,20.5,28.07,West,280,8.0,10.0,74,0.00,,,0.06,Wunderground v.1.15,2013-01-09 06:14:00,
2013-01-09 00:20:00,27.5,20.3,28.08,WNW,291,9.0,10.0,74,0.00,,,0.06,Wunderground v.1.15,2013-01-09 06:20:00,
2013-01-09 00:26:00,27.3,20.1,28.08,West,276,8.0,10.0,74,0.00,,,0.06,Wunderground v.1.15,2013-01-09 06:26:00,
2013-01-09 00:32:00,27.2,20.0,28.08,WNW,298,9.0,11.0,74,0.00,,,0.06,Wunderground v.1.15,2013-01-09 06:32:00,
2013-01-09 00:38:00,26.9,20.0,28.08,WNW,294,9.0,11.0,75,0.00,,,0.06,Wunderground v.1.15,2013-01-09 06:38:00,
2013-01-09 00:44:00,26.7,19.5,28.08,WNW,295,9.0,13.0,74,0.00,,,0.06,Wunderground v.1.15,2013-01-09 06:44:00,
2013-01-09 00:50:00,26.5,19.6,28.08,WNW,297,10.0,10.0,75,0.00,,,0.06,Wunderground v.1.15,2013-01-09 06:50:00,
2013-01-09 00:56:00,26.4,19.5,28.08,West,278,9.0,14.0,75,0.00,,,0.06,Wunderground v.1.15,2013-01-09 06:56:00,
2013-01-09 01:02:00,26.2,19.7,28.08,West,278,9.0,12.0,76,0.00,,,0.06,Wunderground v.1.15,2013-01-09 07:02:00,
2013-01-09 01:08:00,26.1,19.6,28.08,WNW,289,9.0,12.0,76,0.00,,,0.06,Wunderground v.1.15,2013-01-09 07:08:00,
2013-01-09 01:14:00,26.2,19.4,28.09,West,263,10.0,14.0,75,0.00,,,0.06,Wunderground v.1.15,2013-01-09 07:14:00,
2013-01-09 01:20:00,26.1,19.3,28.09,West,274,10.0,14.0,75,0.00,,,0.06,Wunderground v.1.15,2013-01-09 07:20:00,
2013-01-09 01:26:00,26.2,19.4,28.10,WNW,291,10.0,14.0,75,0.00,,,0.06,Wunderground v.1.15,2013-01-09 07:26:00,
2013-01-09 01:32:00,26.2,19.0,28.10,NW,306,10.0,10.0,74,0.00,,,0.00,Wunderground v.1.15,2013-01-09 07:32:00,
2013-01-09 01:38:00,26.0,18.8,28.11,WNW,290,8.0,10.0,74,0.00,,,0.00,Wunderground v.1.15,2013-01-09 07:38:00,
2013-01-09 01:43:00,25.8,18.7,28.11,WNW,288,7.0,8.0,74,0.00,,,0.00,Wunderground v.1.15,2013-01-09 07:43:00,
2013-01-09 01:50:00,25.5,18.7,28.11,West,264,5.0,5.0,75,0.00,,,0.00,Wunderground v.1.15,2013-01-09 07:50:00,
2013-01-09 01:56:00,25.2,18.4,28.11,West,269,5.0,7.0,75,0.00,,,0.00,Wunderground v.1.15,2013-01-09 07:56:00,
2013-01-09 02:02:00,25.0,18.2,28.12,West,269,5.0,7.0,75,0.00,,,0.00,Wunderground v.1.15,2013-01-09 08:02:00,
2013-01-09 02:08:00,24.8,18.3,28.11,WSW,253,6.0,7.0,76,0.00,,,0.00,Wunderground v.1.15,2013-01-09 08:08:00,
2013-01-09 02:14:00,24.4,17.9,28.11,West,280,6.0,7.0,76,0.00,,,0.00,Wunderground v.1.15,2013-01-09 08:14:00,
2013-01-09 02:19:00,24.2,18.0,28.12,West,278,5.0,6.0,77,0.00,,,0.00,Wunderground v.1.15,2013-01-09 08:19:00,
2013-01-09 02:26:00,23.9,17.7,28.12,WNW,285,6.0,11.0,77,0.00,,,0.00,Wunderground v.1.15,2013-01-09 08:26:00,
2013-01-09 02:32:00,23.8,17.6,28.12,WNW,285,6.0,10.0,77,0.00,,,0.00,Wunderground v.1.15,2013-01-09 08:32:00,
2013-01-09 02:38:00,23.6,17.7,28.12,West,276,6.0,10.0,78,0.00,,,0.00,Wunderground v.1.15,2013-01-09 08:38:00,
2013-01-09 02:44:00,23.4,17.6,28.12,West,276,6.0,7.0,78,0.00,,,0.00,Wunderground v.1.15,2013-01-09 08:44:00,
2013-01-09 02:50:00,23.2,17.4,28.13,WNW,297,6.0,8.0,78,0.00,,,0.00,Wunderground v.1.15,2013-01-09 08:50:00,
2013-01-09 02:56:00,22.9,17.1,28.14,WNW,284,6.0,9.0,78,0.00,,,0.00,Wunderground v.1.15,2013-01-09 08:56:00,
2013-01-09 03:02:00,22.8,17.0,28.14,WNW,298,6.0,14.0,78,0.00,,,0.00,Wunderground v.1.15,2013-01-09 09:02:00,
2013-01-09 03:08:00,22.8,17.3,28.14,WNW,291,6.0,14.0,79,0.00,,,0.00,Wunderground v.1.15,2013-01-09 09:08:00,
2013-01-09 03:14:00,22.7,16.9,28.14,West,278,7.0,14.0,78,0.00,,,0.00,Wunderground v.1.15,2013-01-09 09:14:00,
2013-01-09 03:20:00,22.8,17.0,28.14,West,264,8.0,14.0,78,0.00,,,0.00,Wunderground v.1.15,2013-01-09 09:20:00,
2013-01-09 03:28:00,22.8,16.7,28.14,West,271,9.0,14.0,77,0.00,,,0.00,Wunderground v.1.15,2013-01-09 09:28:00,
2013-01-09 03:34:00,22.5,16.7,28.15,West,274,8.0,14.0,78,0.00,,,0.00,Wunderground v.1.15,2013-01-09 09:34:00,
2013-01-09 03:40:00,22.2,16.4,28.15,West,271,8.0,14.0,78,0.00,,,0.00,Wunderground v.1.15,2013-01-09 09:40:00,
2013-01-09 03:46:00,22.2,16.4,28.15,West,273,8.0,14.0,78,0.00,,,0.00,Wunderground v.1.15,2013-01-09 09:46:00,
2013-01-09 03:52:00,21.9,16.1,28.16,WNW,293,7.0,10.0,78,0.00,,,0.00,Wunderground v.1.15,2013-01-09 09:52:00,
2013-01-09 03:58:00,21.8,16.0,28.16,WNW,291,6.0,14.0,78,0.00,,,0.00,Wunderground v.1.15,2013-01-09 09:58:00,
2013-01-09 04:04:00,21.7,16.2,28.16,West,281,5.0,14.0,79,0.00,,,0.00,Wunderground v.1.15,2013-01-09 10:04:00,
2013-01-09 04:09:00,22.0,16.2,28.17,NNW,331,6.0,14.0,78,0.00,,,0.00,Wunderground v.1.15,2013-01-09 10:09:00,
2013-01-09 04:16:00,22.1,16.3,28.17,WNW,294,7.0,14.0,78,0.00,,,0.00,Wunderground v.1.15,2013-01-09 10:16:00,
2013-01-09 04:22:00,21.9,16.1,28.17,West,269,7.0,14.0,78,0.00,,,0.00,Wunderground v.1.15,2013-01-09 10:22:00,
2013-01-09 04:28:00,22.0,15.9,28.17,WNW,285,7.0,14.0,77,0.00,,,0.00,Wunderground v.1.15,2013-01-09 10:28:00,
2013-01-09 04:34:00,22.2,16.1,28.18,West,264,8.0,14.0,77,0.00,,,0.00,Wunderground v.1.15,2013-01-09 10:34:00,
2013-01-09 04:40:00,22.2,15.8,28.17,WNW,293,8.0,14.0,76,0.00,,,0.00,Wunderground v.1.15,2013-01-09 10:40:00,
2013-01-09 04:46:00,22.1,15.7,28.17,West,281,8.0,14.0,76,0.00,,,0.00,Wunderground v.1.15,2013-01-09 10:46:00,
2013-01-09 04:52:00,22.2,15.8,28.17,WNW,283,9.0,14.0,76,0.00,,,0.00,Wunderground v.1.15,2013-01-09 10:52:00,
2013-01-09 04:58:00,22.2,15.8,28.17,West,269,9.0,14.0,76,0.00,,,0.00,Wunderground v.1.15,2013-01-09 10:58:00,
2013-01-09 05:04:00,22.1,15.7,28.17,West,276,9.0,14.0,76,0.00,,,0.00,Wunderground v.1.15,2013-01-09 11:04:00,
2013-01-09 05:10:00,21.9,15.8,28.17,West,280,8.0,14.0,77,0.00,,,0.00,Wunderground v.1.15,2013-01-09 11:10:00,
2013-01-09 05:16:00,22.1,15.7,28.17,West,262,7.0,14.0,76,0.00,,,0.00,Wunderground v.1.15,2013-01-09 11:16:00,
2013-01-09 05:22:00,22.1,15.7,28.17,WNW,288,7.0,14.0,76,0.00,,,0.00,Wunderground v.1.15,2013-01-09 11:22:00,
2013-01-09 05:30:00,21.8,15.4,28.18,WNW,288,7.0,7.0,76,0.00,,,0.00,Wunderground v.1.15,2013-01-09 11:30:00,
2013-01-09 05:36:00,21.5,15.1,28.18,West,261,7.0,14.0,76,0.00,,,0.00,Wunderground v.1.15,2013-01-09 11:36:00,
2013-01-09 05:42:00,21.4,15.3,28.18,West,278,7.0,14.0,77,0.00,,,0.00,Wunderground v.1.15,2013-01-09 11:42:00,
2013-01-09 05:48:00,21.5,15.4,28.18,WNW,288,7.0,14.0,77,0.00,,,0.00,Wunderground v.1.15,2013-01-09 11:48:00,
2013-01-09 05:54:00,21.5,15.1,28.18,WNW,285,6.0,14.0,76,0.00,,,0.00,Wunderground v.1.15,2013-01-09 11:54:00,
2013-01-09 06:00:00,21.4,15.0,28.18,West,262,6.0,14.0,76,0.00,,,0.00,Wunderground v.1.15,2013-01-09 12:00:00,
2013-01-09 06:06:00,21.3,14.9,28.18,West,276,7.0,14.0,76,0.00,,,0.00,Wunderground v.1.15,2013-01-09 12:06:00,
2013-01-09 06:12:00,21.1,15.0,28.18,West,269,6.0,14.0,77,0.00,,,0.00,Wunderground v.1.15,2013-01-09 12:12:00,
2013-01-09 06:18:00,21.1,15.0,28.18,West,278,6.0,14.0,77,0.00,,,0.00,Wunderground v.1.15,2013-01-09 12:18:00,
2013-01-09 06:24:00,21.0,14.9,28.18,WNW,294,5.0,14.0,77,0.00,,,0.00,Wunderground v.1.15,2013-01-09 12:24:00,
2013-01-09 06:30:00,21.1,14.7,28.18,WNW,300,5.0,5.0,76,0.00,,,0.00,Wunderground v.1.15,2013-01-09 12:30:00,
2013-01-09 06:36:00,21.1,14.7,28.18,WNW,298,6.0,14.0,76,0.00,,,0.00,Wunderground v.1.15,2013-01-09 12:36:00,
2013-01-09 06:42:00,21.1,14.7,28.18,West,274,5.0,9.0,76,0.00,,,0.00,Wunderground v.1.15,2013-01-09 12:42:00,
2013-01-09 06:48:00,21.0,14.6,28.18,WNW,283,6.0,14.0,76,0.00,,,0.00,Wunderground v.1.15,2013-01-09 12:48:00,
2013-01-09 06:54:00,20.9,14.5,28.18,West,263,5.0,14.0,76,0.00,,,0.00,Wunderground v.1.15,2013-01-09 12:54:00,
2013-01-09 07:00:00,20.8,14.4,28.18,WSW,249,4.0,14.0,76,0.00,,,0.00,Wunderground v.1.15,2013-01-09 13:00:00,
2013-01-09 07:06:00,20.6,14.2,28.18,West,276,4.0,14.0,76,0.00,,,0.00,Wunderground v.1.15,2013-01-09 13:06:00,
2013-01-09 07:12:00,20.5,14.1,28.18,WSW,248,4.0,14.0,76,0.00,,,0.00,Wunderground v.1.15,2013-01-09 13:12:00,
2013-01-09 07:18:00,20.2,13.8,28.18,SW,225,2.0,14.0,76,0.00,,,0.00,Wunderground v.1.15,2013-01-09 13:18:00,
2013-01-09 07:24:00,20.0,13.6,28.18,WSW,239,2.0,14.0,76,0.00,,,0.00,Wunderground v.1.15,2013-01-09 13:24:00,
2013-01-09 07:30:00,19.8,13.8,28.19,West,280,1.0,1.0,77,0.00,,,0.00,Wunderground v.1.15,2013-01-09 13:30:00,
2013-01-09 07:36:00,20.0,13.9,28.19,WNW,285,2.0,14.0,77,0.00,,,0.00,Wunderground v.1.15,2013-01-09 13:36:00,
2013-01-09 07:42:00,20.0,13.6,28.19,NNW,339,3.0,14.0,76,0.00,,,0.00,Wunderground v.1.15,2013-01-09 13:42:00,
2013-01-09 07:48:00,19.9,13.6,28.19,North,354,2.0,14.0,76,0.00,,,0.00,Wunderground v.1.15,2013-01-09 13:48:00,
2013-01-09 07:54:00,19.8,13.8,28.19,NNE,29,1.0,14.0,77,0.00,,,0.00,Wunderground v.1.15,2013-01-09 13:54:00,
2013-01-09 08:00:00,20.0,14.2,28.19,North,352,1.0,1.0,78,0.00,,,0.00,Wunderground v.1.15,2013-01-09 14:00:00,
2013-01-09 08:06:00,20.6,14.5,28.19,NE,43,0.0,14.0,77,0.00,,,0.00,Wunderground v.1.15,2013-01-09 14:06:00,
2013-01-09 08:12:00,20.4,14.0,28.19,South,172,0.0,14.0,76,0.00,,,0.00,Wunderground v.1.15,2013-01-09 14:12:00,
2013-01-09 08:18:00,20.1,13.7,28.20,WSW,241,0.0,14.0,76,0.00,,,0.00,Wunderground v.1.15,2013-01-09 14:18:00,
2013-01-09 08:24:00,20.0,13.9,28.20,SW,214,0.0,14.0,77,0.00,,,0.00,Wunderground v.1.15,2013-01-09 14:24:00,
2013-01-09 08:30:00,19.7,13.7,28.20,WSW,257,1.0,1.0,77,0.00,,,0.00,Wunderground v.1.15,2013-01-09 14:30:00,
2013-01-09 08:36:00,19.7,13.7,28.20,WNW,285,1.0,14.0,77,0.00,,,0.00,Wunderground v.1.15,2013-01-09 14:36:00,
2013-01-09 08:42:00,20.0,13.9,28.20,West,269,2.0,14.0,77,0.00,,,0.00,Wunderground v.1.15,2013-01-09 14:42:00,
2013-01-09 08:48:00,20.2,13.8,28.20,WNW,283,1.0,14.0,76,0.00,,,0.00,Wunderground v.1.15,2013-01-09 14:48:00,
2013-01-09 08:54:00,20.5,14.1,28.20,WNW,288,0.0,14.0,76,0.00,,,0.00,Wunderground v.1.15,2013-01-09 14:54:00,
2013-01-09 09:00:00,21.0,14.3,28.20,WNW,288,0.0,14.0,75,0.00,,,0.00,Wunderground v.1.15,2013-01-09 15:00:00,
2013-01-09 09:06:00,21.1,14.4,28.20,SSE,149,0.0,14.0,75,0.00,,,0.00,Wunderground v.1.15,2013-01-09 15:06:00,
2013-01-09 09:11:00,21.5,14.5,28.20,SSE,158,0.0,14.0,74,0.00,,,0.00,Wunderground v.1.15,2013-01-09 15:11:00,
2013-01-09 09:18:00,21.4,14.1,28.19,South,172,0.0,14.0,73,0.00,,,0.00,Wunderground v.1.15,2013-01-09 15:18:00,
2013-01-09 09:24:00,21.9,14.6,28.19,South,172,0.0,14.0,73,0.00,,,0.00,Wunderground v.1.15,2013-01-09 15:24:00,
2013-01-09 09:29:00,21.5,14.2,28.19,South,172,0.0,14.0,73,0.00,,,0.00,Wunderground v.1.15,2013-01-09 15:29:00,
2013-01-09 09:36:00,21.5,14.5,28.19,SW,224,0.0,14.0,74,0.00,,,0.00,Wunderground v.1.15,2013-01-09 15:36:00,
2013-01-09 09:42:00,21.6,14.6,28.20,WSW,241,0.0,14.0,74,0.00,,,0.00,Wunderground v.1.15,2013-01-09 15:42:00,
2013-01-09 09:48:00,21.4,14.4,28.20,SSW,201,1.0,14.0,74,0.00,,,0.00,Wunderground v.1.15,2013-01-09 15:48:00,
2013-01-09 09:53:00,21.3,14.3,28.20,SSW,210,2.0,14.0,74,0.00,,,0.00,Wunderground v.1.15,2013-01-09 15:53:00,
2013-01-09 10:00:00,21.1,14.1,28.20,SW,218,3.0,14.0,74,0.00,,,0.00,Wunderground v.1.15,2013-01-09 16:00:00,
2013-01-09 10:06:00,20.7,14.0,28.21,WSW,240,3.0,14.0,75,0.00,,,0.00,Wunderground v.1.15,2013-01-09 16:06:00,
2013-01-09 10:12:00,20.9,14.2,28.21,SW,236,3.0,14.0,75,0.00,,,0.00,Wunderground v.1.15,2013-01-09 16:12:00,
2013-01-09 10:18:00,21.3,14.3,28.20,SW,217,2.0,14.0,74,0.00,,,0.00,Wunderground v.1.15,2013-01-09 16:18:00,
2013-01-09 10:24:00,22.0,14.7,28.20,SW,228,2.0,14.0,73,0.00,,,0.00,Wunderground v.1.15,2013-01-09 16:24:00,
2013-01-09 10:30:00,22.7,15.0,28.20,SSW,210,2.0,14.0,72,0.00,,,0.00,Wunderground v.1.15,2013-01-09 16:30:00,
2013-01-09 10:36:00,23.4,15.4,28.20,South,185,2.0,14.0,71,0.00,,,0.00,Wunderground v.1.15,2013-01-09 16:36:00,
2013-01-09 10:42:00,23.9,15.5,28.20,SE,146,2.0,14.0,70,0.00,,,0.00,Wunderground v.1.15,2013-01-09 16:42:00,
2013-01-09 10:48:00,23.6,15.2,28.21,SE,146,3.0,14.0,70,0.00,,,0.00,Wunderground v.1.15,2013-01-09 16:48:00,
2013-01-09 10:54:00,23.4,15.4,28.20,SSE,147,4.0,14.0,71,0.00,,,0.00,Wunderground v.1.15,2013-01-09 16:54:00,
2013-01-09 11:00:00,23.5,15.5,28.20,ESE,118,3.0,14.0,71,0.00,,,0.00,Wunderground v.1.15,2013-01-09 17:00:00,
2013-01-09 11:06:00,23.9,16.2,28.20,ESE,121,3.0,14.0,72,0.00,,,0.00,Wunderground v.1.15,2013-01-09 17:06:00,
2013-01-09 11:11:00,24.1,16.4,28.20,SSE,149,3.0,4.0,72,0.00,,,0.00,Wunderground v.1.15,2013-01-09 17:11:00,
2013-01-09 11:18:00,24.4,16.3,28.20,East,98,3.0,14.0,71,0.00,,,0.00,Wunderground v.1.15,2013-01-09 17:18:00,
2013-01-09 11:24:00,24.8,16.4,28.20,SE,136,3.0,14.0,70,0.00,,,0.00,Wunderground v.1.15,2013-01-09 17:24:00,
2013-01-09 11:30:00,24.9,16.8,28.21,SE,127,3.0,3.0,71,0.00,,,0.00,Wunderground v.1.15,2013-01-09 17:30:00,
2013-01-09 11:35:00,25.4,17.3,28.21,SSE,148,2.0,14.0,71,0.00,,,0.00,Wunderground v.1.15,2013-01-09 17:35:00,
2013-01-09 11:42:00,25.7,16.9,28.20,SE,134,2.0,4.0,69,0.00,,,0.00,Wunderground v.1.15,2013-01-09 17:42:00,
2013-01-09 11:48:00,25.5,16.7,28.20,SSE,147,3.0,14.0,69,0.00,,,0.00,Wunderground v.1.15,2013-01-09 17:48:00,
2013-01-09 11:54:00,25.9,17.1,28.20,SSE,159,3.0,14.0,69,0.00,,,0.00,Wunderground v.1.15,2013-01-09 17:54:00,
2013-01-09 12:00:00,26.1,17.3,28.19,SE,124,3.0,14.0,69,0.00,,,0.00,Wunderground v.1.15,2013-01-09 18:00:00,
2013-01-09 12:06:00,26.2,17.4,28.19,SSW,201,4.0,14.0,69,0.00,,,0.00,Wunderground v.1.15,2013-01-09 18:06:00,
2013-01-09 12:12:00,26.4,17.3,28.19,ESE,123,4.0,14.0,68,0.00,,,0.00,Wunderground v.1.15,2013-01-09 18:12:00,
2013-01-09 12:18:00,26.5,17.7,28.18,SE,131,4.0,14.0,69,0.00,,,0.00,Wunderground v.1.15,2013-01-09 18:18:00,
2013-01-09 12:24:00,26.6,17.8,28.19,ESE,121,5.0,14.0,69,0.00,,,0.00,Wunderground v.1.15,2013-01-09 18:24:00,
2013-01-09 12:30:00,26.7,17.9,28.18,SE,133,6.0,6.0,69,0.00,,,0.00,Wunderground v.1.15,2013-01-09 18:30:00,
2013-01-09 12:36:00,27.1,17.9,28.18,SE,145,6.0,14.0,68,0.00,,,0.00,Wunderground v.1.15,2013-01-09 18:36:00,
2013-01-09 12:42:00,27.5,18.7,28.18,SE,145,5.0,14.0,69,0.00,,,0.00,Wunderground v.1.15,2013-01-09 18:42:00,
2013-01-09 12:44:00,27.6,18.4,28.18,SE,137,5.0,14.0,68,0.00,,,0.00,Wunderground v.1.15,2013-01-09 18:44:00,
2013-01-09 12:46:00,27.7,18.8,28.18,SSE,155,5.0,14.0,69,0.00,,,0.00,Wunderground v.1.15,2013-01-09 18:46:00,
2013-01-09 12:50:00,27.9,18.7,28.18,SE,138,5.0,14.0,68,0.00,,,0.00,Wunderground v.1.15,2013-01-09 18:50:00,
2013-01-09 12:54:00,28.1,18.9,28.18,SSE,159,4.0,14.0,68,0.00,,,0.00,Wunderground v.1.15,2013-01-09 18:54:00,
2013-01-09 12:56:00,28.3,19.1,28.18,SSE,160,4.0,14.0,68,0.00,,,0.00,Wunderground v.1.15,2013-01-09 18:56:00,
2013-01-09 13:02:00,28.9,19.7,28.18,SSW,208,4.0,14.0,68,0.00,,,0.00,Wunderground v.1.15,2013-01-09 19:02:00,
2013-01-09 13:08:00,29.5,19.9,28.18,SSW,195,4.0,14.0,67,0.00,,,0.00,Wunderground v.1.15,2013-01-09 19:08:00,
2013-01-09 13:14:00,29.8,19.8,28.18,South,173,5.0,14.0,66,0.00,,,0.00,Wunderground v.1.15,2013-01-09 19:14:00,
2013-01-09 13:20:00,30.0,19.7,28.18,SE,141,6.0,6.0,65,0.00,,,0.00,Wunderground v.1.15,2013-01-09 19:20:00,
2013-01-09 13:24:00,30.0,19.7,28.17,SSE,165,6.0,14.0,65,0.00,,,0.00,Wunderground v.1.15,2013-01-09 19:24:00,
2013-01-09 13:30:00,30.1,20.1,28.17,SSE,148,6.0,6.0,66,0.00,,,0.00,Wunderground v.1.15,2013-01-09 19:30:00,
2013-01-09 13:36:00,30.3,19.9,28.17,ESE,109,5.0,14.0,65,0.00,,,0.00,Wunderground v.1.15,2013-01-09 19:36:00,
2013-01-09 13:42:00,30.3,19.9,28.16,SSE,159,5.0,6.0,65,0.00,,,0.00,Wunderground v.1.15,2013-01-09 19:42:00,
2013-01-09 13:48:00,30.3,19.9,28.16,SE,139,5.0,14.0,65,0.00,,,0.00,Wunderground v.1.15,2013-01-09 19:48:00,
2013-01-09 13:54:00,30.6,20.2,28.15,ESE,104,5.0,14.0,65,0.00,,,0.00,Wunderground v.1.15,2013-01-09 19:54:00,
2013-01-09 14:00:00,30.9,20.5,28.15,SE,128,5.0,5.0,65,0.00,,,0.00,Wunderground v.1.15,2013-01-09 20:00:00,
2013-01-09 14:06:00,31.0,20.6,28.15,ESE,117,5.0,14.0,65,0.00,,,0.00,Wunderground v.1.15,2013-01-09 20:06:00,
2013-01-09 14:12:00,31.1,20.7,28.14,SE,141,5.0,14.0,65,0.00,,,0.00,Wunderground v.1.15,2013-01-09 20:12:00,
2013-01-09 14:20:00,31.4,21.3,28.14,SSE,167,5.0,5.0,66,0.00,,,0.00,Wunderground v.1.15,2013-01-09 20:20:00,
2013-01-09 14:26:00,31.7,21.3,28.14,SE,132,4.0,14.0,65,0.00,,,0.00,Wunderground v.1.15,2013-01-09 20:26:00,
2013-01-09 14:32:00,32.4,21.9,28.15,SSE,151,3.0,14.0,65,0.00,,,0.00,Wunderground v.1.15,2013-01-09 20:32:00,
2013-01-09 14:37:00,33.0,22.1,28.14,South,177,3.0,14.0,64,0.00,,,0.00,Wunderground v.1.15,2013-01-09 20:37:00,
2013-01-09 14:44:00,33.8,22.5,28.14,SSE,150,3.0,14.0,63,0.00,,,0.00,Wunderground v.1.15,2013-01-09 20:44:00,
2013-01-09 14:50:00,34.1,22.8,28.14,SSW,210,4.0,14.0,63,0.00,,,0.00,Wunderground v.1.15,2013-01-09 20:50:00,
2013-01-09 14:56:00,34.7,23.4,28.14,South,185,4.0,14.0,63,0.00,,,0.00,Wunderground v.1.15,2013-01-09 20:56:00,
2013-01-09 15:02:00,35.1,24.1,28.14,SSW,207,5.0,14.0,64,0.00,,,0.00,Wunderground v.1.15,2013-01-09 21:02:00,
2013-01-09 15:08:00,35.4,24.4,28.14,SSE,165,5.0,14.0,64,0.00,,,0.00,Wunderground v.1.15,2013-01-09 21:08:00,
2013-01-09 15:14:00,35.4,24.8,28.14,SW,217,6.0,14.0,65,0.00,,,0.00,Wunderground v.1.15,2013-01-09 21:14:00,
2013-01-09 15:20:00,35.6,25.0,28.14,SW,221,5.0,5.0,65,0.00,,,0.00,Wunderground v.1.15,2013-01-09 21:20:00,
2013-01-09 15:26:00,35.6,25.0,28.14,SSE,152,5.0,14.0,65,0.00,,,0.00,Wunderground v.1.15,2013-01-09 21:26:00,
2013-01-09 15:32:00,35.4,25.5,28.14,SSW,197,5.0,6.0,67,0.00,,,0.00,Wunderground v.1.15,2013-01-09 21:32:00,
2013-01-09 15:38:00,35.2,25.3,28.14,SE,141,6.0,14.0,67,0.00,,,0.00,Wunderground v.1.15,2013-01-09 21:38:00,
2013-01-09 15:44:00,35.0,25.5,28.14,SSE,165,6.0,14.0,68,0.00,,,0.00,Wunderground v.1.15,2013-01-09 21:44:00,
2013-01-09 15:50:00,35.0,25.9,28.14,SSW,193,6.0,14.0,69,0.00,,,0.00,Wunderground v.1.15,2013-01-09 21:50:00,
2013-01-09 15:56:00,35.0,25.9,28.13,SSE,155,7.0,14.0,69,0.00,,,0.00,Wunderground v.1.15,2013-01-09 21:56:00,
2013-01-09 16:01:00,35.0,26.2,28.13,SSE,162,7.0,14.0,70,0.00,,,0.00,Wunderground v.1.15,2013-01-09 22:01:00,
2013-01-09 16:08:00,35.1,26.3,28.13,South,179,6.0,14.0,70,0.00,,,0.00,Wunderground v.1.15,2013-01-09 22:08:00,
2013-01-09 16:14:00,35.0,26.2,28.12,SSE,159,7.0,14.0,70,0.00,,,0.00,Wunderground v.1.15,2013-01-09 22:14:00,
2013-01-09 16:20:00,35.0,26.5,28.12,SSE,156,6.0,6.0,71,0.00,,,0.00,Wunderground v.1.15,2013-01-09 22:20:00,
2013-01-09 16:26:00,35.0,26.5,28.12,SW,226,4.0,14.0,71,0.00,,,0.00,Wunderground v.1.15,2013-01-09 22:26:00,
2013-01-09 16:32:00,35.0,26.5,28.11,SSE,155,4.0,14.0,71,0.00,,,0.00,Wunderground v.1.15,2013-01-09 22:32:00,
2013-01-09 16:38:00,34.8,26.7,28.11,SE,131,5.0,14.0,72,0.00,,,0.00,Wunderground v.1.15,2013-01-09 22:38:00,
2013-01-09 16:44:00,34.7,26.9,28.11,SSE,148,5.0,14.0,73,0.00,,,0.00,Wunderground v.1.15,2013-01-09 22:44:00,
2013-01-09 16:50:00,34.7,26.9,28.11,South,184,6.0,6.0,73,0.00,,,0.00,Wunderground v.1.15,2013-01-09 22:50:00,
2013-01-09 16:56:00,34.8,27.0,28.11,SSE,160,6.0,14.0,73,0.00,,,0.00,Wunderground v.1.15,2013-01-09 22:56:00,
2013-01-09 17:02:00,35.1,27.3,28.10,SW,236,6.0,14.0,73,0.00,,,0.00,Wunderground v.1.15,2013-01-09 23:02:00,
2013-01-09 17:08:00,35.1,27.3,28.10,SSE,167,6.0,14.0,73,0.00,,,0.00,Wunderground v.1.15,2013-01-09 23:08:00,
2013-01-09 17:14:00,34.9,27.1,28.10,SW,228,5.0,14.0,73,0.00,,,0.00,Wunderground v.1.15,2013-01-09 23:14:00,
2013-01-09 17:20:00,34.7,26.9,28.10,SW,236,5.0,5.0,73,0.00,,,0.00,Wunderground v.1.15,2013-01-09 23:20:00,
2013-01-09 17:26:00,34.7,27.3,28.10,ESE,121,4.0,14.0,74,0.00,,,0.00,Wunderground v.1.15,2013-01-09 23:26:00,
2013-01-09 17:32:00,34.5,27.1,28.09,SSW,208,5.0,14.0,74,0.00,,,0.00,Wunderground v.1.15,2013-01-09 23:32:00,
2013-01-09 17:38:00,34.3,26.9,28.09,SSW,193,3.0,14.0,74,0.00,,,0.00,Wunderground v.1.15,2013-01-09 23:38:00,
2013-01-09 17:43:00,34.2,27.1,28.09,SSW,203,2.0,14.0,75,0.00,,,0.00,Wunderground v.1.15,2013-01-09 23:43:00,
2013-01-09 17:50:00,34.1,27.0,28.09,South,174,4.0,4.0,75,0.00,,,0.00,Wunderground v.1.15,2013-01-09 23:50:00,
2013-01-09 17:56:00,33.9,27.1,28.09,SSW,205,5.0,14.0,76,0.00,,,0.00,Wunderground v.1.15,2013-01-09 23:56:00,
2013-01-09 18:01:00,33.7,26.9,28.09,SSW,200,4.0,14.0,76,0.00,,,0.00,Wunderground v.1.15,2013-01-10 00:01:00,
2013-01-09 18:08:00,33.5,26.7,28.08,SW,215,5.0,14.0,76,0.00,,,0.00,Wunderground v.1.15,2013-01-10 00:08:00,
2013-01-09 18:14:00,33.4,27.0,28.08,SSW,211,5.0,14.0,77,0.00,,,0.00,Wunderground v.1.15,2013-01-10 00:14:00,
2013-01-09 18:19:00,33.2,26.8,28.08,South,186,3.0,14.0,77,0.00,,,0.00,Wunderground v.1.15,2013-01-10 00:19:00,
2013-01-09 18:26:00,33.1,26.7,28.08,SW,214,3.0,14.0,77,0.00,,,0.00,Wunderground v.1.15,2013-01-10 00:26:00,
2013-01-09 18:32:00,33.2,26.8,28.08,SSW,198,4.0,14.0,77,0.00,,,0.00,Wunderground v.1.15,2013-01-10 00:32:00,
2013-01-09 18:38:00,33.2,26.8,28.08,South,173,4.0,14.0,77,0.00,,,0.00,Wunderground v.1.15,2013-01-10 00:38:00,
2013-01-09 18:43:00,33.5,27.1,28.08,SW,218,4.0,14.0,77,0.00,,,0.00,Wunderground v.1.15,2013-01-10 00:43:00,
2013-01-09 18:50:00,34.0,27.2,28.07,South,191,5.0,5.0,76,0.00,,,0.00,Wunderground v.1.15,2013-01-10 00:50:00,
2013-01-09 18:56:00,34.0,27.2,28.07,SE,134,6.0,14.0,76,0.00,,,0.00,Wunderground v.1.15,2013-01-10 00:56:00,
2013-01-09 19:02:00,34.1,27.3,28.07,SSE,150,6.0,14.0,76,0.00,,,0.00,Wunderground v.1.15,2013-01-10 01:02:00,
2013-01-09 19:08:00,33.7,26.9,28.07,South,174,5.0,14.0,76,0.00,,,0.00,Wunderground v.1.15,2013-01-10 01:08:00,
2013-01-09 19:13:00,33.4,27.0,28.06,West,260,4.0,14.0,77,0.00,,,0.00,Wunderground v.1.15,2013-01-10 01:13:00,
2013-01-09 19:20:00,33.2,26.8,28.06,WSW,238,4.0,4.0,77,0.00,,,0.00,Wunderground v.1.15,2013-01-10 01:20:00,
2013-01-09 19:26:00,33.0,26.9,28.06,WNW,283,3.0,14.0,78,0.00,,,0.00,Wunderground v.1.15,2013-01-10 01:26:00,
2013-01-09 19:31:00,32.6,26.8,28.05,SW,214,2.0,4.0,79,0.00,,,0.00,Wunderground v.1.15,2013-01-10 01:31:00,
2013-01-09 19:38:00,32.7,26.6,28.05,SSE,159,2.0,14.0,78,0.00,,,0.00,Wunderground v.1.15,2013-01-10 01:38:00,
2013-01-09 19:44:00,32.6,26.8,28.05,SW,226,2.0,14.0,79,0.00,,,0.00,Wunderground v.1.15,2013-01-10 01:44:00,
2013-01-09 19:49:00,32.6,26.5,28.05,SSW,212,3.0,14.0,78,0.00,,,0.00,Wunderground v.1.15,2013-01-10 01:49:00,
2013-01-09 19:56:00,32.5,26.7,28.05,WSW,238,2.0,14.0,79,0.00,,,0.00,Wunderground v.1.15,2013-01-10 01:56:00,
2013-01-09 20:02:00,32.5,26.7,28.04,West,262,2.0,14.0,79,0.00,,,0.00,Wunderground v.1.15,2013-01-10 02:02:00,
2013-01-09 20:07:00,32.4,26.6,28.04,SW,222,1.0,14.0,79,0.00,,,0.00,Wunderground v.1.15,2013-01-10 02:07:00,
2013-01-09 20:14:00,32.5,26.7,28.03,SSW,212,2.0,14.0,79,0.00,,,0.00,Wunderground v.1.15,2013-01-10 02:14:00,
2013-01-09 20:20:00,32.5,26.7,28.03,South,190,3.0,14.0,79,0.00,,,0.00,Wunderground v.1.15,2013-01-10 02:20:00,
2013-01-09 20:26:00,32.5,26.7,28.02,SSE,155,3.0,14.0,79,0.00,,,0.00,Wunderground v.1.15,2013-01-10 02:26:00,
2013-01-09 20:32:00,32.7,26.9,28.02,SSE,165,3.0,5.0,79,0.00,,,0.00,Wunderground v.1.15,2013-01-10 02:32:00,
2013-01-09 20:38:00,32.9,27.1,28.02,South,181,4.0,14.0,79,0.00,,,0.00,Wunderground v.1.15,2013-01-10 02:38:00,
2013-01-09 20:44:00,32.8,27.0,28.02,SSE,151,4.0,14.0,79,0.00,,,0.00,Wunderground v.1.15,2013-01-10 02:44:00,
2013-01-09 20:50:00,32.9,27.1,28.01,SSE,158,4.0,14.0,79,0.00,,,0.00,Wunderground v.1.15,2013-01-10 02:50:00,
2013-01-09 20:56:00,33.0,27.2,28.01,SSW,212,5.0,14.0,79,0.00,,,0.00,Wunderground v.1.15,2013-01-10 02:56:00,
2013-01-09 21:02:00,33.1,27.6,28.01,South,186,7.0,14.0,80,0.00,,,0.00,Wunderground v.1.15,2013-01-10 03:02:00,
2013-01-09 21:08:00,33.4,27.6,28.01,SSW,204,7.0,14.0,79,0.00,,,0.00,Wunderground v.1.15,2013-01-10 03:08:00,
2013-01-09 21:14:00,33.2,27.4,28.00,SW,217,6.0,14.0,79,0.00,,,0.00,Wunderground v.1.15,2013-01-10 03:14:00,
2013-01-09 21:21:00,32.9,27.4,28.00,South,169,5.0,14.0,80,0.00,,,0.00,Wunderground v.1.15,2013-01-10 03:21:00,
2013-01-09 21:28:00,33.1,27.6,28.00,SSE,159,4.0,14.0,80,0.00,,,0.00,Wunderground v.1.15,2013-01-10 03:28:00,
2013-01-09 21:34:00,33.1,27.3,28.00,East,92,2.0,14.0,79,0.00,,,0.00,Wunderground v.1.15,2013-01-10 03:34:00,
2013-01-09 21:40:00,32.5,26.7,28.01,NNE,31,1.0,1.0,79,0.00,,,0.00,Wunderground v.1.15,2013-01-10 03:40:00,
2013-01-09 21:46:00,32.1,26.9,28.01,SE,131,1.0,14.0,81,0.00,,,0.00,Wunderground v.1.15,2013-01-10 03:46:00,
2013-01-09 21:52:00,32.0,26.8,28.00,SE,145,1.0,14.0,81,0.00,,,0.00,Wunderground v.1.15,2013-01-10 03:52:00,
2013-01-09 21:58:00,32.0,26.8,28.01,SE,131,1.0,14.0,81,0.00,,,0.00,Wunderground v.1.15,2013-01-10 03:58:00,
2013-01-09 22:04:00,31.9,26.7,28.01,SW,222,1.0,14.0,81,0.00,,,0.00,Wunderground v.1.15,2013-01-10 04:04:00,
2013-01-09 22:10:00,31.7,26.5,28.01,NW,311,0.0,14.0,81,0.00,,,0.00,Wunderground v.1.15,2013-01-10 04:10:00,
2013-01-09 22:16:00,31.4,26.2,28.00,SE,137,0.0,14.0,81,0.00,,,0.00,Wunderground v.1.15,2013-01-10 04:16:00,
2013-01-09 22:22:00,31.5,26.3,28.00,SSE,162,2.0,14.0,81,0.00,,,0.00,Wunderground v.1.15,2013-01-10 04:22:00,
2013-01-09 22:28:00,31.0,25.9,28.00,SE,146,4.0,14.0,81,0.00,,,0.00,Wunderground v.1.15,2013-01-10 04:28:00,
2013-01-09 22:33:00,30.7,25.9,28.00,SSE,152,4.0,14.0,82,0.00,,,0.00,Wunderground v.1.15,2013-01-10 04:33:00,
2013-01-09 22:40:00,30.2,25.4,28.00,SE,129,3.0,3.0,82,0.00,,,0.00,Wunderground v.1.15,2013-01-10 04:40:00,
2013-01-09 22:46:00,29.5,24.7,27.99,SE,129,1.0,14.0,82,0.00,,,0.00,Wunderground v.1.15,2013-01-10 04:46:00,
2013-01-09 22:52:00,28.9,24.4,27.99,ESE,114,0.0,14.0,83,0.00,,,0.00,Wunderground v.1.15,2013-01-10 04:52:00,
2013-01-09 22:58:00,28.7,24.5,27.99,SE,125,0.0,14.0,84,0.00,,,0.00,Wunderground v.1.15,2013-01-10 04:58:00,
2013-01-09 23:00:00,28.6,24.7,27.99,SSE,153,1.0,14.0,85,0.00,,,0.00,Wunderground v.1.15,2013-01-10 05:00:00,
2013-01-09 23:02:00,28.6,24.7,27.99,SE,134,1.0,14.0,85,0.00,,,0.00,Wunderground v.1.15,2013-01-10 05:02:00,
2013-01-09 23:06:00,28.7,24.8,27.98,ESE,120,2.0,14.0,85,0.00,,,0.00,Wunderground v.1.15,2013-01-10 05:06:00,
2013-01-09 23:12:00,28.7,24.8,27.98,SE,131,2.0,14.0,85,0.00,,,0.00,Wunderground v.1.15,2013-01-10 05:12:00,
2013-01-09 23:16:00,28.5,24.6,27.97,ESE,120,1.0,14.0,85,0.00,,,0.00,Wunderground v.1.15,2013-01-10 05:16:00,
2013-01-09 23:22:00,28.3,24.6,27.96,SSE,147,2.0,14.0,86,0.00,,,0.00,Wunderground v.1.15,2013-01-10 05:22:00,
2013-01-09 23:32:00,28.3,24.6,27.96,SE,139,3.0,14.0,86,0.00,,,0.00,Wunderground v.1.15,2013-01-10 05:32:00,
2013-01-09 23:38:00,28.3,24.9,27.96,SE,139,3.0,14.0,87,0.00,,,0.00,Wunderground v.1.15,2013-01-10 05:38:00,
2013-01-09 23:48:00,28.7,25.3,27.96,SE,139,3.0,14.0,87,0.00,,,0.00,Wunderground v.1.15,2013-01-10 05:48:00,
2013-01-09 23:54:00,28.8,25.1,27.95,SSE,154,5.0,14.0,86,0.00,,,0.00,Wunderground v.1.15,2013-01-10 05:54:00,